Regional Weather Roundup
Issued by NWS Raleigh/Durham, NC

Home | Current Version | Previous Version | Text Only | Print | Product List | Glossary On
Versions: 1 2 3 4 5 6 7 8 9 10 11 12 13 14 15 16 17 18 19 20 21 22 23 24 25 26 27 28 29 30 31 32 33 34 35 36 37 38 39 40 41 42 43 44 45 46 47 48 49 50
000
ASUS42 KRAH 231810
RWRRAH
NORTH CAROLINA WEATHER ROUNDUP
NATIONAL WEATHER SERVICE RALEIGH NC
200 PM EDT WED JUL 23 2014

NOTE: "FAIR" INDICATES FEW OR NO CLOUDS BELOW 12,000 FEET WITH NO
SIGNIFICANT WEATHER AND/OR OBSTRUCTIONS TO VISIBILITY.

NCZ001-053-055-056-065-067-231900-
WESTERN NORTH CAROLINA

CITY           SKY/WX    TMP DP  RH WIND       PRES   REMARKS
ASHEVILLE      PTSUNNY   81  69  67 NW14      30.12F
JEFFERSON      PTSUNNY   81  60  49 W6        30.17S
MORGANTON      SUNNY     88  65  46 CALM      30.09F
HICKORY        MOSUNNY   89  66  46 VRB3      30.04F
RUTHERFORDTON  MOSUNNY   85  70  61 S3        30.06F
MOUNT AIRY     SUNNY     89  71  54 S6        30.03F HX  95
BOONE          MOSUNNY   80  60  50 NW7       30.17F
$$

NCZ021-022-025-041-071-084-088-231900-
CENTRAL NORTH CAROLINA

CITY           SKY/WX    TMP DP  RH WIND       PRES   REMARKS
CHARLOTTE      MOSUNNY   86  68  54 VRB5      30.04F
GREENSBORO     MOSUNNY   89  70  53 VRB3      30.02F
WINSTON-SALEM  SUNNY     89  66  46 VRB3      30.04F
RALEIGH-DURHAM MOSUNNY   90  72  55 W7        30.01F HX  97
FORT BRAGG     MOSUNNY   80  74  80 SW8       30.02F
FAYETTEVILLE   CLOUDY    80  70  71 W9        30.03S
BURLINGTON     SUNNY     90  68  48 VRB5      30.01F
LAURINBURG     LGT RAIN  80  73  79 NE6       30.03F
$$

NCZ011-015-027-028-043-044-047-080-103-231900-
NORTHEASTERN NORTH CAROLINA

CITY           SKY/WX    TMP DP  RH WIND       PRES   REMARKS
ROCKY MT-WILSO MOSUNNY   90  74  59 SW8       30.00F HX  99
GREENVILLE     SUNNY     90  73  58 S3        30.01F HX  98
WASHINGTON     SUNNY     86  73  66 SW8       30.01F
ELIZABETH CITY PTSUNNY   86  73  65 SW10      29.98F
MANTEO         NOT AVBL
CAPE HATTERAS  MOSUNNY   84  75  74 SW8       30.03F
$$

NCZ078-087-090-091-093-098-101-231900-
SOUTHEASTERN NORTH CAROLINA

CITY           SKY/WX    TMP DP  RH WIND       PRES   REMARKS
LUMBERTON      MOSUNNY   88  73  61 VRB7      30.02F HX  95
GOLDSBORO      MOSUNNY   89  77  68 VRB5      29.98F HX 101
KINSTON        MOSUNNY   90  73  58 W3        30.01F HX  98
KENANSVILLE    MOSUNNY   87  72  60 CALM      30.02F
NEW BERN       MOSUNNY   91  73  55 VRB3      30.01F HX  99
CHERRY POINT   TSTM      85  76  74 SE10      30.03F
BEAUFORT       MOSUNNY   85  75  72 S10       30.03S
JACKSONVILLE   CLOUDY    82  75  79 S10       30.01F
WILMINGTON     MOSUNNY   89  74  60 MISG      30.02F HX  98
$$




USA.gov is the U.S. government's official web portal to all federal, state and local government web resources and services.